TimeCDT,TemperatureF,Dew PointF,Humidity,Sea Level PressureIn,VisibilityMPH,Wind Direction,Wind SpeedMPH,Gust SpeedMPH,PrecipitationIn,Events,Conditions,WindDirDegrees,DateUTC
12:52 AM,46.0,39.0,76,29.79,10.0,North,3.5,-,N/A,,Overcast,350,2012-10-08 05:52:00
1:52 AM,46.0,39.9,79,29.73,10.0,SSE,6.9,-,N/A,,Overcast,150,2012-10-08 06:52:00
2:52 AM,46.9,35.1,63,29.70,10.0,South,8.1,-,N/A,,Overcast,170,2012-10-08 07:52:00
3:52 AM,48.0,32.0,54,29.67,10.0,SSW,8.1,-,N/A,,Overcast,200,2012-10-08 08:52:00
4:52 AM,50.0,32.0,50,29.63,10.0,SSW,11.5,-,N/A,,Overcast,200,2012-10-08 09:52:00
5:52 AM,51.1,33.1,50,29.61,10.0,SSW,6.9,-,0.00,,Overcast,200,2012-10-08 10:52:00
6:52 AM,53.1,32.0,45,29.60,10.0,West,8.1,-,N/A,,Partly Cloudy,280,2012-10-08 11:52:00
7:52 AM,53.1,35.1,50,29.62,10.0,WNW,17.3,-,N/A,,Clear,290,2012-10-08 12:52:00
8:52 AM,54.0,39.9,59,29.64,10.0,WNW,17.3,27.6,N/A,,Clear,300,2012-10-08 13:52:00
9:52 AM,55.0,41.0,59,29.66,10.0,NW,17.3,27.6,N/A,,Clear,310,2012-10-08 14:52:00
10:52 AM,55.0,39.9,57,29.68,10.0,NW,23.0,27.6,N/A,,Clear,310,2012-10-08 15:52:00
11:52 AM,59.0,41.0,51,29.68,10.0,NW,20.7,27.6,N/A,,Scattered Clouds,310,2012-10-08 16:52:00
12:52 PM,59.0,39.0,48,29.69,10.0,NNW,20.7,27.6,N/A,,Scattered Clouds,330,2012-10-08 17:52:00
1:52 PM,57.9,37.9,47,29.70,10.0,WNW,23.0,29.9,N/A,,Mostly Cloudy,300,2012-10-08 18:52:00
2:52 PM,59.0,37.0,44,29.70,10.0,NW,19.6,25.3,N/A,,Mostly Cloudy,310,2012-10-08 19:52:00
3:52 PM,57.0,41.0,55,29.71,10.0,NNW,18.4,28.8,N/A,,Scattered Clouds,330,2012-10-08 20:52:00
4:52 PM,55.0,37.9,53,29.72,10.0,NW,17.3,28.8,0.00,Rain,Light Rain,310,2012-10-08 21:52:00
5:52 PM,55.0,35.1,47,29.73,10.0,NW,15.0,-,0.00,,Clear,310,2012-10-08 22:52:00
7:52 PM,51.1,35.1,54,29.75,10.0,NW,9.2,-,N/A,,Clear,310,2012-10-09 00:52:00
8:52 PM,48.9,35.1,59,29.76,10.0,WNW,4.6,-,N/A,,Partly Cloudy,290,2012-10-09 01:52:00
9:52 PM,48.9,37.0,64,29.77,10.0,WNW,6.9,-,N/A,,Mostly Cloudy,300,2012-10-09 02:52:00
11:52 PM,48.0,35.1,61,29.79,10.0,NW,12.7,-,N/A,,Scattered Clouds,310,2012-10-09 04:52:00